Location: Tierra Monte Subdivision
(35.2092°N, 106.4864°W)
Time: 04:04:18
(UTC+00:00)

Cosmos 2074 Rocket - Pass Details

Date: 30 March 2020
Orbit: 967 x 986 km, 82.9° (Epoch: 02 June)

Event Time Altitude Azimuth Distance (km) Brightness Sun altitude
Rises 03:16:29 0° 359° (N) 3,688 7.3 -22.8°
Reaches altitude 10° 03:19:05 10° 4° (N) 2,739 6.6 -23.2°
Maximum altitude 03:25:12 52° 81° (E) 1,202 4.1 -24.4°
Enters shadow 03:25:34 52° 93° (E) 1,211 4.1 -24.5°
